GW5221 Weather Reports


time (UTC)temp
C
wind
direction
speed
KPH
gust
KPH
rain 1hr
cm
rain 24hr
cm
rain mn
cm
humidity
%
barometer
mb
20260504021538 27 345 0.0 6.4 0.00 0.00 0.00 78 1019.4
20260504021034 27 167 8.0 11.3 0.00 0.00 0.00 79 1019.1
20260504020531 27 92 4.8 4.8 0.00 0.00 0.00 80 1019.2
20260504020028 27 313 3.2 4.8 0.00 0.00 0.00 80 1019.2
20260504015524 27 55 4.8 6.4 0.00 0.00 0.00 80 1019.0
20260504015020 27 21 6.4 9.7 0.00 0.00 0.00 80 1018.6
20260504014516 27 28 0.0 3.2 0.00 0.00 0.00 80 1018.7
20260504014014 27 37 3.2 4.8 0.00 0.00 0.00 80 1018.5
20260504013512 27 349 0.0 4.8 0.00 0.00 0.00 80 1018.6
20260504013009 27 357 1.6 3.2 0.00 0.00 0.00 80 1018.7
20260504012506 27 43 1.6 9.7 0.00 0.00 0.00 80 1018.5
20260504012004 27 357 6.4 9.7 0.00 0.00 0.00 80 1018.5
20260504011500 27 20 1.6 6.4 0.00 0.00 0.00 80 1018.5
20260504010955 27 57 4.8 9.7 0.00 0.00 0.00 80 1018.4
20260504010452 27 321 3.2 4.8 0.00 0.00 0.00 80 1018.3
20260504005948 27 347 1.6 4.8 0.00 0.00 0.00 80 1018.2
20260504005445 27 2 1.6 4.8 0.00 0.00 0.00 80 1018.2
20260504004942 27 311 1.6 9.7 0.00 0.00 0.00 80 1018.3
20260504004440 27 85 3.2 3.2 0.00 0.00 0.00 79 1018.1
20260504003937 27 352 1.6 4.8 0.00 0.00 0.00 79 1018.0
20260504003433 27 24 1.6 3.2 0.00 0.00 0.00 79 1017.9
20260504002930 27 10 3.2 9.7 0.00 0.00 0.00 79 1017.9
20260504002427 27 166 3.2 4.8 0.00 0.00 0.00 79 1017.8
20260504001924 27 102 0.0 3.2 0.00 0.00 0.00 79 1018.0
20260504001422 27 18 3.2 9.7 0.00 0.00 0.00 78 1017.9
20260504000918 27 32 1.6 4.8 0.00 0.00 0.00 78 1017.8
20260504000416 27 9 3.2 6.4 0.00 0.00 0.00 77 1017.7
20260503235912 27 66 3.2 4.8 0.00 0.00 0.00 77 1017.7
20260503235410 27 67 0.0 6.4 0.00 0.00 0.00 76 1017.7
20260503234908 27 269 1.6 9.7 0.00 0.00 0.00 76 1017.5
20260503234405 27 11 1.6 12.9 0.00 0.00 0.00 75 1017.7
20260503233903 27 43 4.8 6.4 0.00 0.00 0.00 75 1017.4
20260503233359 27 345 3.2 4.8 0.00 0.00 0.00 75 1017.4
20260503232855 27 53 1.6 9.7 0.00 0.00 0.00 75 1017.3
20260503232353 27 341 3.2 11.3 0.00 0.00 0.00 75 1017.2
20260503231850 27 325 4.8 6.4 0.00 0.00 0.00 75 1017.2
20260503231347 27 104 4.8 6.4 0.00 0.00 0.00 75 1017.0
20260503230843 27 24 9.7 16.1 0.00 0.00 0.00 74 1016.9
20260503230340 28 349 0.0 11.3 0.00 0.00 0.00 74 1017.2
20260503225838 28 13 0.0 11.3 0.00 0.00 0.00 74 1017.0
20260503225333 28 347 3.2 12.9 0.00 0.00 0.00 73 1017.1
20260503224830 28 30 4.8 11.3 0.00 0.00 0.00 73 1017.0
20260503224327 28 346 1.6 4.8 0.00 0.00 0.00 73 1017.1
20260503223825 28 344 1.6 1.6 0.00 0.00 0.00 72 1016.7
20260503223323 28 327 4.8 14.5 0.00 0.00 0.00 72 1017.0
20260503222818 28 294 3.2 11.3 0.00 0.00 0.00 72 1017.1
20260503222317 28 36 4.8 11.3 0.00 0.00 0.00 71 1016.9
20260503221814 28 13 1.6 11.3 0.00 0.00 0.00 71 1017.1
20260503221313 28 79 6.4 12.9 0.00 0.00 0.00 70 1017.0
20260503220809 28 316 3.2 14.5 0.00 0.00 0.00 70 1016.8
20260503220306 28 298 4.8 12.9 0.00 0.00 0.00 70 1016.7
20260503215802 28 105 4.8 9.7 0.00 0.00 0.00 70 1016.8
20260503215259 28 23 6.4 11.3 0.00 0.00 0.00 71 1016.8
20260503214757 29 347 4.8 6.4 0.00 0.00 0.00 71 1016.7
20260503214254 29 79 4.8 11.3 0.00 0.00 0.00 70 1016.5
20260503213752 30 25 1.6 9.7 0.00 0.00 0.00 69 1016.5
20260503213249 30 70 3.2 12.9 0.00 0.00 0.00 70 1016.7
20260503212746 30 51 3.2 11.3 0.00 0.00 0.00 69 1016.6
20260503212243 30 101 8.0 17.7 0.00 0.00 0.00 68 1016.7
20260503211741 30 94 1.6 22.5 0.00 0.00 0.00 66 1016.6
20260503211237 30 240 1.6 11.3 0.00 0.00 0.00 67 1016.7
20260503210732 30 51 3.2 11.3 0.00 0.00 0.00 65 1016.7
20260503210230 30 23 3.2 9.7 0.00 0.00 0.00 65 1016.7
20260503205725 30 117 6.4 14.5 0.00 0.00 0.00 65 1016.9
20260503205222 30 80 3.2 4.8 0.00 0.00 0.00 65 1016.9
20260503204718 30 359 3.2 6.4 0.00 0.00 0.00 67 1017.0
20260503204216 31 89 3.2 11.3 0.00 0.00 0.00 65 1016.9
20260503203713 31 296 3.2 4.8 0.00 0.00 0.00 66 1017.0
20260503203211 30 61 6.4 9.7 0.00 0.00 0.00 67 1017.1
20260503202708 30 353 3.2 9.7 0.00 0.00 0.00 68 1017.0
20260503202206 31 54 6.4 12.9 0.00 0.00 0.00 66 1017.1
20260503201703 31 310 6.4 11.3 0.00 0.00 0.00 64 1016.9
20260503201200 31 330 6.4 12.9 0.00 0.00 0.00 64 1017.0
20260503200656 31 337 3.2 11.3 0.00 0.00 0.00 63 1017.2
20260503200153 31 66 3.2 6.4 0.00 0.00 0.00 64 1017.3
20260503195650 31 49 6.4 9.7 0.00 0.00 0.00 64 1017.2
20260503195147 31 37 3.2 6.4 0.00 0.00 0.00 64 1017.2
20260503194644 31 357 3.2 4.8 0.00 0.00 0.00 62 1017.2
20260503194139 31 187 3.2 12.9 0.00 0.00 0.00 61 1017.4
20260503193637 31 32 8.0 12.9 0.00 0.00 0.00 61 1017.4
20260503193132 31 28 3.2 11.3 0.00 0.00 0.00 61 1017.1
20260503192628 31 94 3.2 16.1 0.00 0.00 0.00 61 1017.6
20260503192124 31 321 3.2 11.3 0.00 0.00 0.00 62 1017.4
20260503191621 31 64 1.6 14.5 0.00 0.00 0.00 60 1017.4
20260503191118 31 4 1.6 9.7 0.00 0.00 0.00 60 1017.6
20260503190615 32 54 3.2 9.7 0.00 0.00 0.00 60 1017.5
20260503190112 31 343 3.2 11.3 0.00 0.00 0.00 60 1017.7
20260503185608 31 66 6.4 14.5 0.00 0.00 0.00 62 1017.6
20260503185108 31 353 3.2 11.3 0.00 0.00 0.00 62 1017.8
20260503184604 31 253 3.2 16.1 0.00 0.00 0.00 63 1017.9
20260503184100 31 34 3.2 14.5 0.00 0.00 0.00 64 1017.8
20260503183557 31 345 3.2 11.3 0.00 0.00 0.00 65 1017.8
20260503183054 31 107 3.2 9.7 0.00 0.00 0.00 64 1018.0
20260503182553 31 263 3.2 16.1 0.00 0.00 0.00 63 1018.1
20260503182050 31 276 4.8 12.9 0.00 0.00 0.00 65 1018.2
20260503181547 31 208 3.2 14.5 0.00 0.00 0.00 65 1018.1
20260503181043 31 206 3.2 12.9 0.00 0.00 0.00 65 1018.3
20260503180541 32 78 3.2 11.3 0.00 0.00 0.00 63 1018.3
20260503180038 31 144 4.8 12.9 0.00 0.00 0.00 64 1018.3
20260503175535 31 172 4.8 12.9 0.00 0.00 0.00 64 1018.3
20260503175032 31 147 3.2 11.3 0.00 0.00 0.00 66 1018.4
20260503174530 31 0 4.8 11.3 0.00 0.00 0.00 66 1018.3
20260503174026 31 353 1.6 9.7 0.00 0.00 0.00 66 1018.8
20260503173521 31 171 6.4 12.9 0.00 0.00 0.00 65 1018.8
20260503173017 31 166 4.8 16.1 0.00 0.00 0.00 65 1018.9
20260503172515 31 240 1.6 9.7 0.00 0.00 0.00 67 1018.7
20260503172012 30 34 8.0 11.3 0.00 0.00 0.00 68 1019.2
20260503171508 30 64 4.8 14.5 0.00 0.00 0.00 69 1019.1
20260503171006 31 100 8.0 14.5 0.00 0.00 0.00 68 1019.1
20260503170502 31 66 4.8 11.3 0.00 0.00 0.00 67 1019.0
20260503150854 30 55 4.8 16.1 0.00 0.00 0.00 71 1020.3
20260503150350 29 43 0.0 20.9 0.00 0.00 0.00 73 1020.5
20260503140315 30 230 4.8 9.7 0.00 0.00 0.00 70 1020.4
20260503131244 29 86 4.8 16.1 0.00 0.00 0.00 72 1020.3
20260503130742 29 354 4.8 17.7 0.00 0.00 0.00 73 1020.4
20260503130239 29 7 3.2 6.4 0.00 0.00 0.00 73 1020.3
20260503120205 27 100 4.8 12.9 0.00 0.00 0.00 78 1019.9
20260503110632 27 356 3.2 6.4 0.00 0.00 0.00 80 1019.3
20260503110130 27 339 3.2 4.8 0.00 0.00 0.00 81 1018.9
20260503081445 26 349 1.6 9.7 0.00 0.00 0.00 79 1017.6
20260503080943 26 164 1.6 3.2 0.00 0.00 0.00 79 1017.5
20260503080439 26 353 3.2 9.7 0.00 0.00 0.00 79 1017.6
20260503072915 26 347 1.6 3.2 0.00 0.00 0.00 79 1017.8
20260503072413 26 351 1.6 4.8 0.00 0.00 0.00 79 1017.8
20260503071909 26 331 3.2 4.8 0.00 0.00 0.00 79 1017.8
20260503071407 26 342 0.0 11.3 0.00 0.00 0.00 79 1018.0
20260503070902 26 343 1.6 4.8 0.00 0.00 0.00 79 1018.0
20260503070400 26 359 3.2 9.7 0.00 0.00 0.00 79 1018.0
20260503060326 26 12 1.6 3.2 0.00 0.00 0.00 79 1018.6
20260503054814 26 342 0.0 11.3 0.00 0.00 0.00 79 1018.9
20260503054309 26 337 0.0 6.4 0.00 0.00 0.00 79 1018.9
20260503053808 26 19 4.8 4.8 0.00 0.00 0.00 79 1019.0
20260503053306 26 0 1.6 9.7 0.00 0.00 0.00 79 1019.0
20260503052802 26 317 0.0 1.6 0.00 0.00 0.00 79 1019.0
20260503052259 26 342 0.0 0.0 0.00 0.00 0.00 79 1018.9
20260503051754 26 46 3.2 6.4 0.00 0.00 0.00 78 1019.0
20260503051252 26 21 3.2 4.8 0.00 0.00 0.00 78 1018.9
20260503050748 26 14 1.6 3.2 0.00 0.00 0.00 78 1019.1
20260503050244 26 321 0.0 4.8 0.00 0.00 0.00 78 1019.2
20260503045742 26 22 1.6 4.8 0.00 0.00 0.00 77 1019.2
20260503045240 26 319 1.6 3.2 0.00 0.00 0.00 77 1019.1
20260503044736 27 341 0.0 4.8 0.00 0.00 0.00 77 1019.1
20260503044233 27 313 1.6 6.4 0.00 0.00 0.00 77 1019.4
20260503043730 27 133 3.2 4.8 0.00 0.00 0.00 77 1019.3
20260503043227 27 56 1.6 3.2 0.00 0.00 0.00 76 1019.3
20260503042723 27 28 3.2 9.7 0.00 0.00 0.00 77 1019.4
20260503042220 27 49 3.2 6.4 0.00 0.00 0.00 77 1019.6
20260503041716 27 352 3.2 3.2 0.00 0.00 0.00 77 1019.3
20260503041214 27 337 0.0 6.4 0.00 0.00 0.00 77 1019.5
20260503040711 27 6 1.6 4.8 0.00 0.00 0.00 77 1019.3
20260503040209 27 356 3.2 4.8 0.00 0.00 0.00 77 1019.4
20260503035705 27 43 3.2 4.8 0.00 0.00 0.00 77 1019.4
20260503035203 27 336 1.6 1.6 0.00 0.00 0.00 77 1019.5
20260503034700 27 336 1.6 3.2 0.00 0.00 0.00 77 1019.7
20260503034157 27 347 1.6 6.4 0.00 0.00 0.00 76 1019.7
20260503033654 27 35 3.2 4.8 0.00 0.00 0.00 76 1019.6
20260503033152 27 354 1.6 4.8 0.00 0.00 0.00 76 1019.8
20260503032650 27 336 1.6 4.8 0.00 0.00 0.00 76 1019.7
20260503032148 27 4 0.0 4.8 0.00 0.00 0.00 76 1019.7
20260503031645 27 355 0.0 1.6 0.00 0.00 0.00 76 1019.7
20260503031143 27 31 3.2 6.4 0.00 0.00 0.00 76 1019.8
20260503030638 27 342 1.6 1.6 0.00 0.00 0.00 76 1019.8
20260503030135 27 339 0.0 6.4 0.00 0.00 0.00 76 1019.7
20260503025632 27 16 1.6 1.6 0.00 0.00 0.00 76 1019.8
20260503025130 27 344 1.6 9.7 0.00 0.00 0.00 76 1019.9
20260503024626 27 27 6.4 9.7 0.00 0.00 0.00 76 1019.6
20260503024124 27 47 3.2 4.8 0.00 0.00 0.00 76 1019.5
20260503023621 27 350 1.6 4.8 0.00 0.00 0.00 76 1019.5
20260503023118 27 353 0.0 1.6 0.00 0.00 0.00 75 1019.5
20260503022613 27 351 0.0 4.8 0.00 0.00 0.00 75 1019.5
20260503022108 27 328 0.0 6.4 0.00 0.00 0.00 75 1019.5